This is the latest recevied weather packets stored in our database for station/object KJ5SC. If no packets are shown the sender has not sent any weather packets the latest 10 day(s).
| Time | Temp. | Humidity | Pressure | Rain* | Wind** | Luminosity | Snow |
|---|---|---|---|---|---|---|---|
| 1787605937 | 37.78° C | 32% | 1016.1 hPa | 0 mm | - | 134 W/m² | - |
| 1787605636 | 37.78° C | 38% | 1016.3 hPa | 0 mm | - | 79 W/m² | - |
| 1787605332 | 37.78° C | 40% | 1016.3 hPa | 0 mm | - | 79 W/m² | - |
| 1787605027 | 37.78° C | 39% | 1016.4 hPa | 0 mm | - | 83 W/m² | - |
| 1787604726 | 37.78° C | 38% | 1016.5 hPa | 0 mm | - | 91 W/m² | - |
| 1787604422 | 37.78° C | 37% | 1016.5 hPa | 0 mm | - | 134 W/m² | - |
| 1787604121 | 37.78° C | 35% | 1016.7 hPa | 0 mm | - | 101 W/m² | - |
| 1787603821 | 37.78° C | 39% | 1016.9 hPa | 0 mm | - | 103 W/m² | - |
| 1787603517 | 37.78° C | 41% | 1016.9 hPa | 0 mm | - | 106 W/m² | - |
| 1787603212 | 37.78° C | 39% | 1016.8 hPa | 0 mm | - | 113 W/m² | - |
| 1787602908 | 37.78° C | 38% | 1017.2 hPa | 0 mm | - | 126 W/m² | - |
| 1787602604 | 37.78° C | 41% | 1017.2 hPa | 0 mm | - | 141 W/m² | - |
| 1787602299 | 37.78° C | 42% | 1017.2 hPa | 0 mm | - | 96 W/m² | - |
| 1787601999 | 37.78° C | 44% | 1017.4 hPa | 0 mm | - | 100 W/m² | - |
| 1787601693 | 37.22° C | 43% | 1017.6 hPa | 0 mm | - | 96 W/m² | - |
| 1787601388 | 37.78° C | 41% | 1017.5 hPa | 0 mm | - | 630 W/m² | - |
| 1787601087 | 37.22° C | 42% | 1017.6 hPa | 0 mm | - | 708 W/m² | - |
| 1787600786 | 36.67° C | 45% | - | 0 mm | - | - | - |
| 1787600483 | 36.67° C | 46% | - | 0 mm | - | - | - |
| 1787600179 | 37.22° C | 45% | - | 0 mm | - | - | - |
| 1787599875 | 37.22° C | 45% | - | 0 mm | - | - | - |
| 1787599571 | 36.67° C | 46% | - | 0 mm | - | - | - |
| 1787599268 | 37.22° C | 45% | - | 0 mm | - | - | - |
| 1787598962 | 37.22° C | 44% | - | 0 mm | - | - | - |
| 1787598658 | 37.22° C | 44% | - | 0 mm | - | - | - |
* Rain latest hour (hover to see other rain measurements)
** Current wind speed in m/s (hover to see current wind gust speed)